Dewpoint
63 62 61 61 60 59 57 54 51 50 49 48 48 47 46 46 45 45 45 43 42 42 43 43 44 46 46 45 45 44 42 41 39 40 41 44 45 44 44 44 44 43 42
62 61 61 60 57 53 50 49 47 46 47 47 47 46 45 44 44 43 42 41 41 41 41 42 43 43 47 45 44 44 42 42 41 41 42 42 44 45 45 44 43 42 42
58 57 55 53 50 48 46 45 45 45 46 46 47 45 44 43 43 42 41 40 40 40 41 42 43 44 45 44 44 43 43 42 42 41 41 42 43 44 44 44 44 44 42
56 54 52 48 46 45 45 45 46 46 46 45 45 44 43 42 42 41 40 39 39 40 41 41 41 40 43 44 43 44 43 42 42 41 41 41 41 43 43 42 41 42 42
54 50 47 45 45 45 45 45 45 45 45 45 45 44 43 42 41 42 40 38 38 39 40 39 39 41 43 44 42 42 42 42 42 41 40 40 40 40 40 41 41 42 43
46 44 44 43 43 43 43 42 43 43 42 43 43 43 42 40 42 41 41 38 38 37 37 37 37 40 41 43 42 42 43 42 41 41 40 39 40 41 41 41 41 40 40
46 43 42 41 41 41 41 41 41 41 41 41 41 42 40 38 38 38 37 34 35 35 35 35 35 36 40 41 40 41 41 42 42 42 40 39 38 39 40 40 41 41 41
44 43 42 40 39 39 40 40 40 40 40 40 40 38 36 36 37 37 36 34 34 34 34 35 35 37 39 39 38 38 40 40 41 39 39 39 40 41 41 41 42 42 42
40 39 38 38 38 38 38 38 38 37 37 38 37 36 35 35 37 37 35 34 33 33 33 35 36 37 37 39 37 37 38 39 40 40 41 41 41 40 42 42 41 41 39
40 39 39 38 38 35 34 34 34 33 33 33 32 33 34 33 35 36 36 34 34 34 35 35 35 36 37 38 38 37 37 37 38 38 39 39 40 40 41 42 41 39 40
38 38 36 34 33 32 33 33 32 31 31 31 31 32 32 34 34 35 35 34 35 35 34 34 34 36 37 37 38 38 37 38 38 38 37 37 37 38 39 41 41 41 40
37 36 34 33 32 32 32 31 31 31 30 30 30 30 31 32 34 35 35 35 35 36 35 35 36 37 36 37 37 37 37 38 37 36 36 36 36 37 38 39 41 42 43
37 35 35 34 33 32 32 31 30 31 30 30 30 30 31 31 32 35 35 35 35 34 34 35 36 35 36 35 36 37 36 35 36 35 35 35 36 37 38 39 40 42 44
35 34 34 34 33 33 32 32 31 30 30 30 30 30 30 31 32 33 33 34 34 34 35 34 34 34 34 33 33 33 34 36 37 35 34 35 35 36 36 37 37 39 41
34 34 34 33 33 33 32 33 32 34 32 31 31 30 31 30 31 33 33 32 33 34 34 33 32 32 31 30 30 31 32 34 33 33 33 33 33 34 35 37 37 38 40
33 33 33 32 32 32 32 32 35 35 34 33 33 33 30 32 33 33 33 33 33 34 30 30 29 32 31 29 28 30 30 32 31 32 32 32 32 32 33 35 37 38 39
32 32 32 30 31 31 30 30 29 30 32 32 32 32 33 32 32 32 32 32 32 32 30 29 30 30 29 28 29 30 29 30 31 31 31 31 31 32 33 34 36 37 38
33 32 32 30 30 30 29 28 29 27 26 26 28 30 30 31 31 31 31 30 28 28 27 28 27 28 27 28 28 28 28 29 29 29 30 30 31 32 33 34 36 37 38
32 31 30 30 29 29 28 28 27 27 26 26 27 28 28 29 29 29 29 27 27 27 26 27 27 26 26 26 27 28 28 28 29 29 29 30 31 32 32 35 37 37 37
34 32 31 30 29 28 27 26 26 25 25 26 26 27 27 26 26 26 26 26 26 25 26 26 25 25 26 26 27 28 27 27 28 28 28 30 31 32 33 35 38 41 45
33 30 28 28 27 27 26 26 26 25 25 26 26 27 26 26 25 25 25 25 25 25 25 25 24 25 25 26 26 27 26 27 28 28 28 29 31 32 35 37 40 45 46
30 29 27 27 27 26 26 26 26 25 25 25 25 25 26 25 24 24 24 24 24 25 25 25 25 25 25 27 27 27 27 26 27 27 28 30 31 33 35 37 39 45 45
29 27 27 27 27 26 26 25 25 25 25 25 25 24 24 23 23 23 23 23 23 24 25 25 25 24 25 25 27 28 27 27 28 29 28 30 32 34 35 37 40 44 42
28 27 26 26 26 26 26 25 25 25 25 24 24 23 23 23 23 22 23 23 23 23 24 24 25 25 25 25 26 27 27 28 29 29 30 32 33 34 35 37 39 44 43
28 27 26 26 25 25 25 25 25 25 24 24 23 23 23 23 22 23 23 23 23 23 23 24 24 25 25 25 25 26 26 27 28 29 30 32 32 33 34 36 36 40 42
28 26 25 25 25 25 25 25 24 24 23 23 23 23 23 23 22 23 23 23 23 23 23 24 24 24 24 25 25 25 25 26 27 28 30 31 31 32 33 34 34 36 37
Lifted_Index
-1 -1 -0 0 1 1 1 2 4 5 5 5 7 7 7 7 7 9 12 13 13 12 11 11 11 12 12 12 12 13 13 13 13 12 13 13 12 11 10 10 11 11 12
-1 -1 -0 -0 0 1 2 3 5 5 4 5 7 7 7 7 8 10 12 13 12 12 11 11 12 12 12 12 13 13 13 14 13 13 12 12 11 10 10 9 10 10 11
-1 -1 -1 -0 0 1 3 4 4 4 5 6 6 7 7 8 10 12 13 12 12 11 11 12 12 12 12 12 13 13 14 14 14 13 12 11 10 9 9 8 9 9 10
-1 -1 -1 -0 1 2 3 4 4 5 5 6 7 8 9 11 12 13 12 12 11 11 12 12 12 13 13 13 13 13 14 14 13 12 11 10 9 8 8 8 8 8 9
-1 -1 0 1 2 2 3 4 5 5 6 7 8 10 11 12 13 12 12 11 11 11 12 12 13 13 14 14 14 14 14 13 13 12 10 9 8 8 8 8 8 8 8
0 1 2 2 2 3 3 4 5 6 7 8 10 11 12 12 12 12 11 11 11 12 12 12 13 14 14 14 14 14 13 13 12 11 10 9 8 7 8 7 7 7 7
2 2 2 3 3 3 4 4 5 7 8 10 11 11 12 12 12 11 11 12 12 12 12 12 13 14 14 14 14 13 12 12 11 11 10 8 8 8 8 8 7 7 7
2 2 2 2 3 3 4 5 7 9 10 11 11 11 11 11 11 12 12 12 12 13 13 13 13 14 14 14 13 13 12 11 10 10 9 9 9 9 9 9 8 7 8
2 2 3 3 3 4 6 7 9 10 11 11 11 11 11 12 12 12 12 12 12 13 13 14 14 14 15 14 13 12 11 10 9 9 9 8 9 10 10 10 8 8 8
2 3 4 5 5 6 8 9 10 11 11 11 11 12 12 12 13 13 12 12 12 13 13 14 14 15 15 14 13 12 10 9 8 8 7 7 8 9 10 10 9 8 8
4 5 6 7 8 9 10 10 11 11 11 11 11 12 13 13 14 14 13 13 13 13 13 14 15 15 15 14 13 11 10 8 8 7 6 6 7 8 8 9 9 8 8
6 6 7 9 10 11 11 11 11 11 11 11 11 12 13 14 15 15 15 15 14 14 14 14 15 15 15 13 12 11 9 8 7 6 6 6 6 7 7 8 8 8 8
7 8 9 11 12 12 12 11 12 12 12 11 12 12 13 15 15 16 16 16 16 16 16 16 16 15 14 13 11 10 9 8 7 6 5 5 6 6 6 7 7 7 8
10 11 12 12 12 13 13 13 13 13 13 13 13 13 14 15 15 16 17 17 17 17 17 16 15 14 13 12 11 10 9 8 7 6 5 6 6 6 6 6 6 7 7
12 12 13 13 14 14 15 15 15 16 16 15 15 15 16 16 17 17 18 17 17 17 16 15 13 12 11 11 10 9 9 8 7 6 5 5 5 5 5 6 6 6 7
13 14 14 15 16 16 16 17 17 18 19 19 18 19 19 19 19 19 18 18 17 16 15 13 12 12 11 10 10 9 9 8 7 6 5 5 5 5 5 6 6 6 7
15 15 16 17 17 17 18 18 18 19 20 20 21 21 21 21 20 20 19 18 18 16 15 14 13 13 12 11 10 9 8 8 7 6 5 5 5 5 5 5 6 6 7
16 16 17 18 18 18 18 18 19 19 19 20 21 21 21 21 20 20 19 18 18 17 16 16 15 15 14 13 11 10 9 8 7 6 5 5 4 5 5 5 5 6 6
17 17 18 18 18 19 19 19 19 19 19 19 20 20 20 20 20 19 19 18 18 18 17 17 17 17 15 14 12 10 9 8 7 6 5 4 4 4 4 5 5 6 6
17 18 18 18 18 19 19 19 19 19 19 19 19 19 20 19 19 18 18 18 18 18 18 18 18 18 16 14 13 11 9 8 7 6 5 4 4 4 4 5 5 6 6
17 17 18 18 19 19 19 19 19 19 19 18 18 19 19 18 18 18 18 17 17 17 18 18 18 18 17 16 14 12 10 8 7 6 5 5 4 4 4 4 5 5 6
17 17 18 18 19 19 19 19 19 19 18 18 18 18 18 18 17 17 17 17 17 17 18 18 18 18 18 18 16 14 12 10 9 8 6 5 5 4 4 4 4 4 5
17 17 18 18 18 19 19 19 18 18 18 18 18 18 17 17 17 17 17 17 17 17 18 18 18 18 19 18 18 17 15 13 11 10 8 6 5 5 4 4 4 4 4
17 17 18 18 18 18 18 18 18 18 17 17 17 17 17 17 17 17 17 17 17 17 18 18 18 18 19 19 18 18 18 16 14 12 10 8 6 5 4 4 4 4 4
17 17 18 18 18 18 18 17 17 17 17 17 16 16 16 16 16 17 17 17 17 17 17 18 18 18 18 19 19 19 18 18 16 14 11 9 7 5 5 4 4 4 4
17 18 18 18 18 17 17 17 17 17 17 17 16 16 16 16 16 16 17 17 17 17 17 18 18 18 18 19 19 19 19 18 18 16 13 10 8 6 5 4 4 4 4